651  
ASUS44 KEWX 241903  
RWRTX  
SOUTH TEXAS REGIONAL WEATHER ROUNDUP  
NATIONAL WEATHER SERVICE AUSTIN/SAN ANTONIO TX  
200 PM CDT SAT JUN 24 2017  
 
NOTE: "FAIR" INDICATED FEW OR NO CLOUDS BELOW 12,000 FEET WITH NO  
SIGNIFICANT WEATHER AND/OR S TO VISIBILITY
.  
 
* - THESE STATIONS ARE NOT NWS OR FAA STATIONS...AND ARE NOT SUBJECT  
TO NWS AND FAA QUALITY CONTROL.
 
 
TXZ171-172-183>190-242000-  
TEXAS HILL COUNTRY AND EDWARDS PLATEAU  
 
CITY SKY/WX TMP DP RH WIND PRES REMARKS
 
JUNCTION CLOUDY 74 68 81 E12 30.17S  
*LLANO CLOUDY 73 70 88 E9 30.15F  
BURNET CLOUDY 75 69 81 NE12 30.14F  
*HORSESHOE BAY CLOUDY 74 70 89 MISG 30.13F  
*KERRVILLE PTSUNNY 74 67 78 NE12G21 30.15R  
*FREDERICKSBRG CLOUDY 72 66 83 NE6 30.16S  
*ROCKSPRINGS CLOUDY 79 70 73 E14G20 30.19S  
*BOERNE STAGE CLOUDY 77 63 61 E14G25 30.15F  
*CASTROVILLE CLOUDY 75 71 89 E12G17 30.13R  
HONDO PTSUNNY 89 70 53 NE16G26 30.08S HX 94  
*UVALDE PTSUNNY 89 70 53 NE15 30.07F HX 93  
DEL RIO CLOUDY 90 73 57 E9 30.04S HX 98  
LAUGHLIN AFB NOT AVBL  
CARRIZO SPRGS CLOUDY 93 70 46 NE9 30.02S HX 99  
*EAGLE PASS PTCLDY 91 72 52 VRB6G15 30.04F HX 98  

 
 
TXZ173-191>194-202-209-217>225-228-242000-  
CENTRAL AND SOUTH CENTRAL TEXAS  
 
CITY SKY/WX TMP DP RH WIND PRES REMARKS
 
GEORGETOWN SUNNY 79 66 65 N9 30.12F  
AUSTIN/BERGSTM CLOUDY 83 69 62 NE14 30.12F  
AUSTIN/MABRY CLOUDY 83 67 58 N8 30.13F  
*AUSTIN/EXEC N/A 81 68 65 E13 30.13F  
*LAGO VISTA CLOUDY 77 68 75 NE12G18 30.13F  
SAN MARCOS MOSUNNY 81 70 69 NE12G21 30.15S  
NEW BRAUNFELS CLOUDY 81 67 62 NE18 30.12R  
RANDOLPH AFB CLOUDY 79 69 70 E15 30.13S  
PT SAN ANTONIO LGT RAIN 75 72 88 E13G18 30.10S  
SAN ANTONIO CLOUDY 81 66 60 NE18G28 30.13R  
STINSON FIELD LGT RAIN 75 71 87 E12 30.11R  
*LA GRANGE CLOUDY 74 72 95 N3 30.13R  
*GIDDINGS CLOUDY 78 68 71 N12 30.14R  
*GONZALES LGT RAIN 75 75 100 NW3 30.13S  

 
 
TXZ163>164-176>182-195>201-210>213-226-227-235-242000-  
SOUTHEAST TEXAS  
 
CITY SKY/WX TMP DP RH WIND PRES REMARKS
 
COLLEGE STN CLOUDY 81 69 67 N10 30.12S  
*BRYAN CLOUDY 82 70 66 N9 30.13F  
*CALDWELL NOT AVBL  
*CROCKETT CLOUDY 81 70 69 CALM 30.13F  
*BRENHAM HVY RAIN 73 72 96 N5 30.15R VSB 3/4  
HUNTSVILLE CLOUDY 81 69 67 VRB7 30.11F  
CONROE LGT RAIN 76 73 91 NE7 30.10F  
HOUSTON BUSH PTSUNNY 80 76 87 NW8 30.08S  
HOUSTON HOBBY CLOUDY 84 73 69 NW8 30.07R HX 90  
*HOUSTON SW AP CLOUDY 81 74 81 W5 30.08F  
PEARLAND CLOUDY 84 74 71 NW7 30.08S HX 91  
HOUSTON HOOKS LGT RAIN 79 76 90 NW5 30.09S  
ELLINGTON FLD PTSUNNY 84 75 74 NW8 30.09R HX 92  
SUGAR LAND LGT RAIN 79 75 87 NW7 30.07F  
*HOUSTON EXEC LGT RAIN 73 73 100 W3 30.10S  
*CLEVELAND MUN CLOUDY 80 75 85 N3 30.10F  
*WHARTON LGT RAIN 76 73 89 N3 30.10R  
*COLUMBUS LGT RAIN 74 73 94 CALM 30.12R  
*EAGLE LAKE LGT RAIN 76 76 100 CALM 30.10R  

 
 
TXZ214>216-236>238-242000-  
THE UPPER TEXAS COAST  
 
CITY SKY/WX TMP DP RH WIND PRES REMARKS
 
*ORANGE PTSUNNY 85 77 77 NW9 30.07S HX 95  
PORT ARTHUR MOSUNNY 86 75 69 NW14G21 30.06R HX 95  
GALVESTON PTSUNNY 87 78 74 S9 30.06S HX 100  
ANGLETON TSTM 83 77 82 N15G21 30.06S HX 92  
*BAY CITY LGT RAIN 77 75 92 N8 30.07S  
PALACIOS CLOUDY 78 73 84 N18 30.07R  

 
 
TXZ229>234-239>247-242000-  
TEXAS COASTAL BEND AND RIO GRANDE PLAINS  
 
CITY SKY/WX TMP DP RH WIND PRES REMARKS
 
VICTORIA CLOUDY 75 73 93 N12 30.09S  
*BEEVILLE CLOUDY N/A N/A N/A NE14 30.07F  
ROCKPORT MOSUNNY 91 75 59 SE10 30.02F HX 101  
*PORT ARANSAS CLOUDY 89 76 65 SE9 30.02S HX 99  
*PORT LAVACA HVY RAIN 75 74 97 CALM 30.09R VSB 1  
*INGLESIDE MOSUNNY 92 76 60 MISG 30.01F HX 104  
CORPUS CHRISTI PTSUNNY 93 76 57 SE15 30.00S THUNDER HX 105  
CORPUS NAS NOT AVBL  
*ROBSTOWN PTSUNNY 86 76 70 SW5 30.01R HX 96  
ALICE LGT RAIN 86 73 65 E10 30.01R HX 93  
KINGSVILLE NAS TSTM 79 77 94 SE15 30.00F FOG  
COTULLA CLOUDY 93 68 43 E15 30.02S HX 97  
*FAITH RANCH MOSUNNY 95 66 38 VRB7G18 30.02S HX 98  
LAREDO CLOUDY 97 69 40 E10 29.99S HX 103  

 
 
TXZ248>255-242000-  
DEEP SOUTH TEXAS  
 
CITY SKY/WX TMP DP RH WIND PRES REMARKS
 
BROWNSVILLE MOSUNNY 93 75 55 SE13 29.97S HX 104  
PORT ISABEL SUNNY 92 77 61 E17 29.98S HX 105  
*SOUTH PADRE NOT AVBL  
HARLINGEN LGT RAIN 95 76 53 E13 29.96S HX 108  
*HEBBRONVILLE SUNNY 92 68 44 NE9 30.01S HX 96  
MCALLEN SUNNY 100 70 37 E14G20 29.95S HX 107  
*WESLACO MOSUNNY 94 74 51 E6 29.95S HX 104  
FALFURRIAS CLOUDY 90 67 46 SE17G24 29.97S HX 94  
EDINBURG MOSUNNY 99 67 34 S5 29.96F HX 103  
*ZAPATA MOSUNNY 97 65 34 S3 29.96F HX 99  

 
 
TXZ213>215-236>238-242>244-246-247-251-254-255-242000-  
CMAN STATIONS  
 
STATION/POSITION TIME TEMP WIND PRES WAVE
 
AIR SEA DIR/SP/G HT/PER  
(UTC) (F) (DEG/KT/KT) (MB) (FT/S)  
SABINE PASS 1830 86 85 210/ 8/ 11 1019.5  
SEA RIM ST PARK 1800 84 210/ 8/ 10 1018.3  
NORTH JETTY/GLS 1830 84 150/ 5/ 6 1017.5  
EAGLE POINT 1830 82 84 30/ 5/ 8 1018.1  
MORGANS POINT 1830 81 84 300/ 5/ 7 1018.2  
MISSION/ARANSAS 1800 140/ 11 N/A  
PORT O'CONNOR 1830 84 140/ 7/ 8 1017.1  
PORT ARANSAS 1800 84 86 120/ 9/ 10 1017.1  
MALAQUITE BEACH 1830 85 86 100/ 12/ 13 1016.0  
BAFFIN BAY 1830 86 88 1016.3  
PORT ISABEL 1830 87 86 1015.8  

 
 
GMZ080-GMZ150>470-242000-  
OFFSHORE BUOY REPORTS  
 
STATION/POSITION TIME TEMP WIND PRES WAVE
 
AIR SEA DIR/SP/G HT/PER  
(UTC) (F) (DEG/KT/KT) (MB) (FT/S)  
20 E GALVESTON 1750 83 85 210/ 6/ 8 1017.6 3/ 7  
90 E PT ARANSAS 1750 84 84 100/ 10/ 12 1017.0 5/ 7  
35 NE PT MANSFLD 1750 84 120/ 10/ 12 1015.5 5/ 7  
200 E PT ISABEL 1750 84 84 110/ 12/ 16 1016.2 5/ 7  

 
 
 
CLICK HERE TO GO TO PREVIOUS BULLETINS.

The Nexlab TX Page Main Text Page